This is the latest recevied weather packets stored in our database for station/object N6GPM. If no packets are shown the sender has not sent any weather packets the latest 10 day(s).
| Time | Temp. | Humidity | Pressure | Rain* | Wind** | Luminosity | Snow |
|---|---|---|---|---|---|---|---|
| 1777237135 | 15.56° C | 56% | 1017.3 hPa | 0 mm | - | 202 W/m² | - |
| 1777236833 | 15.56° C | 55% | 1017.5 hPa | 0 mm | - | 353 W/m² | - |
| 1777236527 | 15.56° C | 56% | 1017.5 hPa | 0 mm | - | 274 W/m² | - |
| 1777236224 | 16.11° C | 55% | 1017.4 hPa | 0 mm | - | 217 W/m² | - |
| 1777235919 | 15.56° C | 54% | 1017.4 hPa | 0 mm | - | 828 W/m² | - |
| 1777235616 | 15.56° C | 53% | 1017.5 hPa | 0 mm | - | 221 W/m² | - |
| 1777235313 | 15.56° C | 52% | 1017.4 hPa | 0 mm | - | 258 W/m² | - |
| 1777235009 | 16.11° C | 53% | 1017.4 hPa | 0 mm | - | 239 W/m² | - |
| 1777234706 | 15.56° C | 55% | 1017.3 hPa | 0 mm | - | 858 W/m² | - |
| 1777234401 | 15.56° C | 58% | 1017.3 hPa | 0 mm | - | 175 W/m² | - |
| 1777234096 | 15° C | 58% | 1017.5 hPa | 0 mm | - | 821 W/m² | - |
| 1777233793 | 15.56° C | 59% | 1017.3 hPa | 0 mm | - | 246 W/m² | - |
| 1777233489 | 15.56° C | 64% | 1017.4 hPa | 0 mm | - | 225 W/m² | - |
| 1777233189 | 15° C | 64% | 1017.3 hPa | 0 mm | - | 916 W/m² | - |
| 1777232889 | 15° C | 64% | 1017.2 hPa | 0 mm | - | 848 W/m² | - |
| 1777232588 | 15° C | 64% | 1017.4 hPa | 0 mm | - | 156 W/m² | - |
| 1777232287 | 15° C | 66% | 1017.4 hPa | 0 mm | - | 284 W/m² | - |
| 1777231982 | 13.89° C | 67% | 1017.5 hPa | 0 mm | - | 770 W/m² | - |
| 1777231680 | 13.89° C | 69% | 1017.3 hPa | 0 mm | - | 832 W/m² | - |
| 1777231376 | 14.44° C | 68% | 1017.5 hPa | 0 mm | - | 206 W/m² | - |
| 1777231071 | 14.44° C | 67% | 1017.4 hPa | 0 mm | - | 186 W/m² | - |
| 1777230768 | 15° C | 66% | 1017.5 hPa | 0 mm | - | 675 W/m² | - |
| 1777230463 | 15.56° C | 66% | 1017.3 hPa | 0 mm | - | 971 W/m² | - |
| 1777230160 | 14.44° C | 66% | 1017.5 hPa | 0 mm | - | 897 W/m² | - |
| 1777229857 | 13.89° C | 68% | 1017.4 hPa | 0 mm | - | 775 W/m² | - |
* Rain latest hour (hover to see other rain measurements)
** Current wind speed in m/s (hover to see current wind gust speed)